Regional Weather Roundup
Issued by NWS

Home | Current Version | Previous Version | Text Only | Print | Product List | Glossary Off
Versions: 1 2 3 4 5 6 7 8 9 10 11 12 13 14 15 16 17 18 19 20 21 22 23 24 25 26 27 28 29 30 31 32 33 34 35 36 37 38 39 40 41 42 43 44 45 46 47 48 49 50

000
ASUS45 KBOU 230607
RWRCO

WEATHER ROUNDUP FOR COLORADO
NATIONAL WEATHER SERVICE DENVER/BOULDER CO
1200 AM MDT TUE MAY 23 2017

NOTE: "FAIR" INDICATES FEW OR NO CLOUDS BELOW 12000 FEET WITH NO
SIGNIFICANT WEATHER AND/OR OBSTRUCTIONS TO VISIBILITY.

COZ001>005-013-030-031-230700-
...NORTHWEST COLORADO...

CITY           SKY/WX    TMP DP  RH WIND       PRES   REMARKS
CRAIG          FAIR      35  31  85 CALM      30.34S
HAYDEN         FAIR      37  30  75 CALM      30.34F
MEEKER         MOCLDY    40  37  89 N9        30.33F
RABBIT EARS PA LGT SNOW  27  27 100 CALM      30.37S VSB 3/4
STEAMBOAT SPGS CLOUDY    36  33  88 CALM      30.34S
WALDEN           N/A     34  30  86 CALM      30.36S
$$

COZ006>008-011-230700-
...WEST CENTRAL VALLEYS...

CITY           SKY/WX    TMP DP  RH WIND       PRES   REMARKS
GRAND JUNCTION CLOUDY    56  37  49 N16       30.25R
MONTROSE       LGT RAIN  52  42  69 NE18G26   30.25R
EAGLE          CLOUDY    40  36  86 NW7       30.33F
RIFLE          CLOUDY    51  35  54 MISG      30.29R
DELTA          LGT RAIN  60  40  46 E3        30.21R
NUCLA          CLOUDY    59  34  38 NE16G22   30.23R
$$

COZ017>023-064>068-230700-
...SOUTHWEST COLORADO...

CITY           SKY/WX    TMP DP  RH WIND       PRES   REMARKS
DURANGO        FAIR      46  26  45 NE6       30.15F
CORTEZ         FAIR      45  35  68 CALM      30.16R
PAGOSA SPRINGS FAIR      41  23  48 CALM      30.21R
TELLURIDE      CLOUDY    46  29  51 N6        30.32S
WOLF CREEK PAS MOCLDY    32  21  64 W3        30.43R
$$

COZ009-010-012-014-032>034-037-058>063-230700-
...CENTRAL COLORADO...

CITY           SKY/WX    TMP DP  RH WIND       PRES   REMARKS
ASPEN          RAIN      39  38  96 N9G18     30.30R FOG
BUENA VISTA    LGT RAIN  41  36  83 N7        30.28R
COPPER MTN     CLOUDY    27  21  80 MISG      30.38S
BERTHOUD PASS  CLOUDY    19   9  63 MISG      30.36F
COTTONWOOD PAS SNOW      36  34  93 CALM      30.32R VSB 1/2
GUNNISON       FAIR      44  37  76 SW12      30.26S
KREMMLING      FAIR      37  34  87 CALM      30.36R
LEADVILLE      LGT SNOW  29  27  92 N16       30.32S VSB 1   WCI  17
MONARCH PASS   CLOUDY    30  27  86 NW14G25   30.47S WCI  20
SALIDA         CLOUDY    46  38  73 W5        30.33R
SUNLIGHT       LGT SNOW  28  28 100 N6        30.43R VSB 3/4 WCI  22
WILKERSON PASS LGT SNOW  27  25  93 N8G17     30.37R VSB 1   WCI  18
$$

COZ069>075-230700-
...SAN LUIS VALLEY/SANGRE DE CRISTO MOUNTAINS...

CITY           SKY/WX    TMP DP  RH WIND       PRES   REMARKS
ALAMOSA        CLOUDY    48  34  58 NE3       30.20R
DEL NORTE      MOCLDY    48  29  47 NW20G31   30.24R
LA VETA PASS   SNOW      28  27  93 NE17      30.42F VSB 1/2 WCI  16
SAGUACHE       MOCLDY    46  32  57 NW25      30.22S
$$

COZ035-036-038>040-230700-
...NORTHERN COLORADO FRONT RANGE...

CITY           SKY/WX    TMP DP  RH WIND       PRES   REMARKS
DENVER INTL AP FAIR      44  37  76 W7        30.25S
DMNS CITY PARK   N/A     42  40  91 S2G8      30.26S
AURORA         MOCLDY    40  39  97 W6        30.27R
FRONT RANGE AP FAIR      41  39  93 NW6G18    30.26R
ERIE MUNI ARPT MOCLDY    43  41  93 CALM      30.26S
BOULDER MUN AP CLOUDY    45  43  93 CALM      30.26S
CENTENNIAL     MOCLDY    41  37  86 W7        30.26S
BROOMFIELD     MOCLDY    43  37  81 W3        30.27S
FORT COLLINS   MOCLDY    46  38  73 NE6       30.26S
LONGMONT       CLOUDY    45  42  89 CALM      30.27F FOG
$$

COZ041-046-047-076>085-087-088-230700-
...PIKES PEAK/PALMER DIVIDE AND SOUTHERN FOOTHILLS...

CITY           SKY/WX    TMP DP  RH WIND       PRES   REMARKS
COLO. SPRINGS  MOCLDY    41  34  76 NW9       30.25S
A. F. ACADEMY  FAIR      37  35  92 N10       30.24R
SCHRIEVER AFB  FAIR      40  32  73 NW20      30.23R
CHEYENNE MTN   MOCLDY    41  27  57 NW24G32   30.18F
ELLICOTT       FAIR     N/A N/A N/A N15       30.21R
FALCON         FAIR      37  32  82 NW7       30.26R
FORT CARSON    FAIR      41  35  77 N9        30.22S
LIMON          FAIR      42  37  82 NW18      30.19S
MONUMENT HILL  FAIR      32  32 100 NW14      30.27S WCI  22
CANON CITY     NOT AVBL
WALSENBURG     CLOUDY    41  37  87 NE5       30.29S
TRINIDAD       LGT RAIN  44  36  73 N12       30.29R
$$

COZ042>045-048>051-090-091-230700-
...NORTHEAST COLORADO...

CITY           SKY/WX    TMP DP  RH WIND       PRES   REMARKS
GREELEY ARPT   MOCLDY    45  37  73 N9        30.26R
AKRON          FAIR      39  35  86 NW10      30.19S
BURLINGTON     FAIR      45  41  86 NW15      30.15S
WRAY           FAIR      41  39  93 NW8       30.16S
YUMA           FAIR      37  36  93 W8        30.17S
STERLING       FAIR      41  37  87 N8        30.19S
HOLYOKE        NOT AVBL
FORT MORGAN    FAIR      40  35  81 NW9       30.22S
$$

COZ086-089-092>099-230700-
...SOUTHEAST COLORADO...

CITY           SKY/WX    TMP DP  RH WIND       PRES   REMARKS
PUEBLO         CLOUDY    48  39  71 N12       30.22S
LA JUNTA       CLOUDY    51  38  60 N14G22    30.22R
LAMAR          CLOUDY    51  39  63 N10G22    30.15R
SPRINGFIELD      N/A     49  40  71 NW20      30.17R
$$



USA.gov is the U.S. government's official web portal to all federal, state and local government web resources and services.